• In Belarus
  • List of Countries
  • For 7 days
  • Water Temperature
  • Satellite Maps
  • Weather Map
  • Weather Widgets
  • user-avatar
    Login

    Hourly Weather Bila Tserkva

    Today, 24 February, Saturday

    Time Temperature Precipitation Wind Pressure Humidity
    00:00 -8°C° 0.3 mm 3 mps 749 mmHg 93%
    01:00 -8°C° 0.3 mm 3 mps 749 mmHg 94%
    02:00 -7°C° 0 mm 2 mps 748 mmHg 95%
    03:00 -9°C° 0.4 mm 3 mps 748 mmHg 95%
    04:00 -9°C° 0.4 mm 3 mps 747 mmHg 95%
    05:00 -9°C° 0.4 mm 3 mps 747 mmHg 95%
    06:00 -9°C° 0.4 mm 3 mps 747 mmHg 95%
    07:00 -9°C° 0.4 mm 3 mps 747 mmHg 95%
    08:00 -9°C° 0.4 mm 3 mps 747 mmHg 95%
    09:00 -10°C° 0.3 mm 4 mps 747 mmHg 94%
    10:00 -10°C° 0.3 mm 4 mps 747 mmHg 93%
    11:00 -9°C° 0.3 mm 4 mps 747 mmHg 92%
    12:00 -9°C° 0.3 mm 4 mps 747 mmHg 92%
    13:00 -9°C° 0.3 mm 4 mps 747 mmHg 91%
    14:00 -9°C° 0.3 mm 4 mps 746 mmHg 90%
    15:00 -9°C° 0.2 mm 4 mps 747 mmHg 91%
    16:00 -10°C° 0.2 mm 4 mps 747 mmHg 91%
    17:00 -10°C° 0.2 mm 4 mps 747 mmHg 91%
    18:00 -10°C° 0.1 mm 4 mps 747 mmHg 92%
    19:00 -12°C° 0.1 mm 5 mps 747 mmHg 92%
    20:00 -12°C° 0.1 mm 5 mps 748 mmHg 93%
    21:00 -13°C° 0.1 mm 5 mps 748 mmHg 93%
    22:00 -13°C° 0.1 mm 5 mps 748 mmHg 93%
    23:00 -14°C° 0.1 mm 5 mps 748 mmHg 93%

    Tomorrow, 25 February, Sunday

    Time Temperature Precipitation Wind Pressure Humidity
    00:00 -14°C° 0.1 mm 5 mps 749 mmHg 93%
    01:00 -15°C° 0.1 mm 5 mps 749 mmHg 93%
    02:00 -15°C° 0.1 mm 5 mps 749 mmHg 93%
    03:00 -16°C° 0 mm 4 mps 749 mmHg 93%
    04:00 -17°C° 0 mm 4 mps 750 mmHg 94%
    05:00 -18°C° 0 mm 4 mps 750 mmHg 94%
    06:00 -18°C° 0 mm 4 mps 750 mmHg 95%
    07:00 -19°C° 0 mm 4 mps 750 mmHg 95%
    08:00 -20°C° 0 mm 4 mps 751 mmHg 95%
    09:00 -19°C° 0 mm 4 mps 751 mmHg 94%
    10:00 -18°C° 0 mm 4 mps 751 mmHg 93%
    11:00 -18°C° 0 mm 4 mps 751 mmHg 92%
    12:00 -17°C° 0 mm 4 mps 751 mmHg 90%
    13:00 -17°C° 0 mm 4 mps 751 mmHg 89%
    14:00 -16°C° 0 mm 4 mps 751 mmHg 88%
    15:00 -16°C° 0 mm 4 mps 751 mmHg 89%
    16:00 -15°C° 0 mm 3 mps 752 mmHg 89%
    17:00 -16°C° 0 mm 3 mps 752 mmHg 90%
    18:00 -17°C° 0 mm 3 mps 752 mmHg 92%
    19:00 -17°C° 0 mm 3 mps 752 mmHg 93%
    20:00 -17°C° 0 mm 2 mps 752 mmHg 95%
    21:00 -17°C° 0 mm 2 mps 753 mmHg 95%
    22:00 -18°C° 0 mm 2 mps 753 mmHg 96%
    23:00 -18°C° 0 mm 2 mps 753 mmHg 96%

    Day after tomorrow, 26 February, Monday

    Time Temperature Precipitation Wind Pressure Humidity
    00:00 -18°C° 0 mm 2 mps 753 mmHg 97%
    01:00 -18°C° 0 mm 2 mps 753 mmHg 97%
    02:00 -18°C° 0 mm 2 mps 753 mmHg 98%
    03:00 -18°C° 0 mm 2 mps 753 mmHg 98%
    04:00 -18°C° 0 mm 2 mps 753 mmHg 98%
    05:00 -18°C° 0 mm 2 mps 753 mmHg 98%
    06:00 -18°C° 0 mm 2 mps 753 mmHg 98%
    07:00 -18°C° 0 mm 2 mps 753 mmHg 98%
    08:00 -18°C° 0 mm 2 mps 754 mmHg 97%
    09:00 -17°C° 0 mm 2 mps 754 mmHg 95%
    10:00 -16°C° 0 mm 2 mps 754 mmHg 92%
    11:00 -15°C° 0 mm 2 mps 754 mmHg 90%
    12:00 -15°C° 0 mm 2 mps 754 mmHg 87%
    13:00 -14°C° 0 mm 2 mps 753 mmHg 85%
    14:00 -14°C° 0 mm 2 mps 753 mmHg 83%
    15:00 -14°C° 0 mm 2 mps 753 mmHg 85%
    16:00 -14°C° 0 mm 2 mps 753 mmHg 87%
    17:00 -15°C° 0 mm 2 mps 753 mmHg 89%
    18:00 -16°C° 0 mm 2 mps 753 mmHg 91%
    19:00 -17°C° 0 mm 2 mps 753 mmHg 93%
    20:00 -18°C° 0 mm 2 mps 753 mmHg 94%
    21:00 -19°C° 0 mm 2 mps 753 mmHg 95%
    22:00 -19°C° 0 mm 2 mps 753 mmHg 95%
    23:00 -19°C° 0 mm 2 mps 753 mmHg 96%

    27 February, Tuesday

    Time Temperature Precipitation Wind Pressure Humidity
    00:00 -22°C° 0 mm 3 mps 753 mmHg 96%
    01:00 -22°C° 0 mm 3 mps 752 mmHg 96%
    02:00 -22°C° 0 mm 3 mps 752 mmHg 96%
    03:00 -22°C° 0 mm 3 mps 752 mmHg 96%
    04:00 -23°C° 0 mm 4 mps 751 mmHg 96%
    05:00 -23°C° 0 mm 4 mps 751 mmHg 96%
    06:00 -22°C° 0 mm 4 mps 751 mmHg 95%
    07:00 -22°C° 0 mm 5 mps 751 mmHg 94%
    08:00 -22°C° 0 mm 5 mps 751 mmHg 93%
    09:00 -21°C° 0 mm 5 mps 751 mmHg 92%
    10:00 -20°C° 0 mm 5 mps 751 mmHg 90%
    11:00 -20°C° 0 mm 6 mps 750 mmHg 89%
    12:00 -18°C° 0.1 mm 6 mps 750 mmHg 89%
    13:00 -18°C° 0.1 mm 6 mps 749 mmHg 89%
    14:00 -18°C° 0.1 mm 7 mps 749 mmHg 89%
    15:00 -18°C° 0.5 mm 7 mps 748 mmHg 91%
    16:00 -18°C° 0.5 mm 7 mps 748 mmHg 92%
    17:00 -18°C° 0.5 mm 7 mps 748 mmHg 93%
    18:00 -18°C° 0.5 mm 7 mps 748 mmHg 93%
    19:00 -18°C° 0.5 mm 7 mps 747 mmHg 93%
    20:00 -18°C° 0.5 mm 8 mps 747 mmHg 93%
    21:00 -18°C° 0.4 mm 7 mps 747 mmHg 93%
    22:00 -17°C° 0.4 mm 7 mps 746 mmHg 93%
    23:00 -16°C° 0.4 mm 6 mps 746 mmHg 93%

    28 February, Wednesday

    Time Temperature Precipitation Wind Pressure Humidity
    00:00 -16°C° 0.3 mm 6 mps 746 mmHg 93%
    01:00 -16°C° 0.3 mm 6 mps 745 mmHg 93%
    02:00 -15°C° 0.3 mm 5 mps 745 mmHg 93%
    03:00 -15°C° 0.2 mm 5 mps 745 mmHg 93%
    04:00 -17°C° 0.2 mm 5 mps 745 mmHg 93%
    05:00 -16°C° 0.2 mm 4 mps 745 mmHg 94%
    06:00 -16°C° 0.1 mm 4 mps 745 mmHg 94%
    07:00 -16°C° 0.1 mm 4 mps 746 mmHg 94%
    08:00 -15°C° 0.1 mm 3 mps 746 mmHg 94%
    09:00 -15°C° 0 mm 3 mps 746 mmHg 93%
    10:00 -14°C° 0 mm 3 mps 747 mmHg 91%
    11:00 -12°C° 0 mm 2 mps 747 mmHg 89%
    12:00 -13°C° 0 mm 3 mps 747 mmHg 87%
    13:00 -12°C° 0 mm 3 mps 747 mmHg 86%
    14:00 -12°C° 0 mm 3 mps 747 mmHg 85%
    15:00 -12°C° 0 mm 3 mps 747 mmHg 86%
    16:00 -12°C° 0 mm 2 mps 747 mmHg 88%
    17:00 -12°C° 0 mm 2 mps 747 mmHg 89%
    18:00 -13°C° 0 mm 2 mps 748 mmHg 90%
    19:00 -14°C° 0 mm 2 mps 748 mmHg 91%
    20:00 -15°C° 0 mm 2 mps 748 mmHg 92%
    21:00 -15°C° 0 mm 2 mps 748 mmHg 93%
    22:00 -15°C° 0 mm 2 mps 748 mmHg 93%
    23:00 -16°C° 0 mm 3 mps 748 mmHg 94%

    1 March, Thursday

    Time Temperature Precipitation Wind Pressure Humidity
    00:00 -17°C° 0 mm 3 mps 748 mmHg 94%
    01:00 -17°C° 0 mm 3 mps 748 mmHg 94%
    02:00 -18°C° 0 mm 4 mps 748 mmHg 95%
    03:00 -19°C° 0 mm 4 mps 748 mmHg 95%
    04:00 -19°C° 0 mm 4 mps 748 mmHg 95%
    05:00 -20°C° 0 mm 5 mps 748 mmHg 96%
    06:00 -20°C° 0 mm 5 mps 748 mmHg 95%
    07:00 -20°C° 0 mm 5 mps 748 mmHg 95%
    08:00 -20°C° 0 mm 5 mps 748 mmHg 95%
    09:00 -20°C° 0 mm 5 mps 748 mmHg 94%
    10:00 -19°C° 0 mm 5 mps 748 mmHg 92%
    11:00 -18°C° 0 mm 6 mps 748 mmHg 91%
    12:00 -17°C° 0 mm 6 mps 748 mmHg 89%
    13:00 -17°C° 0 mm 6 mps 748 mmHg 88%
    14:00 -16°C° 0 mm 6 mps 748 mmHg 86%
    15:00 -17°C° 0 mm 5 mps 748 mmHg 87%
    16:00 -17°C° 0 mm 5 mps 748 mmHg 87%
    17:00 -17°C° 0 mm 4 mps 749 mmHg 88%
    18:00 -18°C° 0 mm 4 mps 749 mmHg 89%
    19:00 -19°C° 0 mm 4 mps 749 mmHg 90%
    20:00 -20°C° 0 mm 4 mps 749 mmHg 91%
    21:00 -19°C° 0 mm 3 mps 749 mmHg 92%
    22:00 -21°C° 0 mm 3 mps 749 mmHg 92%
    23:00 -21°C° 0 mm 3 mps 750 mmHg 92%
    Show more